TimeEDT,TemperatureF,Dew PointF,Humidity,Sea Level PressureIn,VisibilityMPH,Wind Direction,Wind SpeedMPH,Gust SpeedMPH,PrecipitationIn,Events,Conditions,WindDirDegrees,DateUTC
12:10 AM,53.6,53.6,100,29.79,0.2,NW,15.0,-,0.00,Fog-Rain,Light Rain,320,2013-05-24 04:10:00
12:30 AM,51.8,51.8,100,29.80,0.5,NW,13.8,21.9,0.00,Fog-Rain,Light Rain,320,2013-05-24 04:30:00
12:37 AM,51.8,50.0,94,29.81,0.8,NW,17.3,-,0.00,Rain,Light Rain,320,2013-05-24 04:37:00
12:43 AM,50.0,48.2,94,29.81,1.2,NW,17.3,-,0.00,Rain,Light Rain,310,2013-05-24 04:43:00
12:56 AM,48.9,47.8,96,29.83,3.0,NW,15.0,-,0.00,Rain,Light Rain,310,2013-05-24 04:56:00
1:11 AM,48.2,46.4,93,29.83,8.0,NW,13.8,-,0.00,Rain,Light Rain,320,2013-05-24 05:11:00
1:34 AM,46.4,46.4,100,29.84,10.0,NW,12.7,-,0.00,Rain,Light Rain,310,2013-05-24 05:34:00
1:44 AM,46.4,46.4,100,29.84,1.8,NNW,13.8,-,0.00,Rain,Light Rain,330,2013-05-24 05:44:00
1:56 AM,45.9,45.0,97,29.84,3.0,NW,12.7,-,0.00,Rain,Light Rain,320,2013-05-24 05:56:00
2:03 AM,46.4,44.6,93,29.84,2.5,NW,12.7,19.6,0.00,Rain,Light Rain,320,2013-05-24 06:03:00
2:17 AM,44.6,44.6,100,29.85,6.0,NNW,13.8,23.0,0.01,Rain,Light Rain,340,2013-05-24 06:17:00
2:39 AM,44.6,42.8,93,29.85,2.5,NW,15.0,-,0.01,Rain,Light Rain,320,2013-05-24 06:39:00
2:47 AM,44.6,42.8,93,29.85,8.0,NNW,18.4,23.0,0.01,Rain,Light Rain,330,2013-05-24 06:47:00
2:56 AM,43.9,41.9,93,29.85,10.0,NNW,11.5,19.6,0.01,Rain,Light Rain,330,2013-05-24 06:56:00
3:10 AM,44.6,42.8,93,29.85,2.5,NNW,11.5,-,0.00,Rain,Light Rain,330,2013-05-24 07:10:00
3:18 AM,44.6,42.8,93,29.86,3.0,NNW,12.7,18.4,0.00,Rain,Light Rain,330,2013-05-24 07:18:00
3:28 AM,42.8,42.8,100,29.86,2.5,NW,13.8,19.6,0.00,Rain,Light Rain,320,2013-05-24 07:28:00
3:41 AM,42.8,42.8,100,-9999,4.0,North,-9999.0,-,N/A,Rain,Light Rain,0,2013-05-24 07:41:00
3:48 AM,42.8,42.8,100,-9999,-9999.0,North,-9999.0,-,N/A,,Unknown,0,2013-05-24 07:48:00
3:56 AM,43.0,41.9,96,-9999,-9999.0,North,-9999.0,-,N/A,,Unknown,0,2013-05-24 07:56:00
4:56 AM,-9999,-9999,N/A,-9999,-9999.0,North,-9999.0,-,N/A,,Unknown,0,2013-05-24 08:56:00
5:45 AM,41.0,39.2,93,29.90,1.8,NNW,10.4,-,N/A,Rain,Light Rain,330,2013-05-24 09:45:00
5:56 AM,39.9,38.8,96,29.92,1.0,NNW,13.8,21.9,N/A,Rain,Light Rain,330,2013-05-24 09:56:00
6:04 AM,39.2,39.2,100,29.91,1.2,NW,15.0,-,0.00,Rain,Light Rain,320,2013-05-24 10:04:00
6:14 AM,39.2,39.2,100,29.92,1.8,NW,10.4,19.6,0.00,Rain,Light Rain,320,2013-05-24 10:14:00
6:30 AM,39.2,39.2,100,29.93,1.5,NNW,12.7,23.0,0.00,Rain,Light Rain,330,2013-05-24 10:30:00
6:56 AM,39.9,39.9,100,29.94,1.0,NNW,13.8,-,0.01,Rain,Light Rain,330,2013-05-24 10:56:00
7:38 AM,39.2,39.2,100,29.96,3.0,NNW,11.5,-,0.00,Rain,Light Rain,330,2013-05-24 11:38:00
7:56 AM,39.9,38.8,96,29.97,3.0,NNW,13.8,-,0.00,Rain,Light Rain,330,2013-05-24 11:56:00
8:56 AM,39.9,37.9,93,30.00,1.0,NW,17.3,23.0,0.00,Rain,Light Rain,320,2013-05-24 12:56:00
9:23 AM,39.2,37.4,93,30.00,3.0,NNW,12.7,-,0.00,Rain,Light Rain,330,2013-05-24 13:23:00
9:56 AM,39.9,37.9,93,30.02,3.0,NW,19.6,-,0.00,Rain,Light Rain,320,2013-05-24 13:56:00
10:56 AM,38.8,36.9,93,30.05,10.0,NNW,17.3,20.7,0.01,Rain,Light Rain Showers,330,2013-05-24 14:56:00
11:56 AM,39.9,36.9,89,30.06,10.0,NW,15.0,23.0,0.00,Rain,Light Rain Showers,320,2013-05-24 15:56:00
12:56 PM,41.9,37.9,86,30.08,10.0,NNW,16.1,-,0.00,,Overcast,330,2013-05-24 16:56:00
1:56 PM,41.0,37.9,89,30.08,8.0,NNW,13.8,23.0,0.00,Rain,Light Rain,330,2013-05-24 17:56:00
2:56 PM,39.9,37.9,93,30.10,6.0,NNW,19.6,-,0.00,Rain,Light Rain,330,2013-05-24 18:56:00
3:56 PM,39.9,37.9,93,30.12,10.0,NW,12.7,21.9,0.00,Rain,Light Rain,320,2013-05-24 19:56:00
4:56 PM,39.9,37.9,93,30.11,5.0,NNW,13.8,20.7,0.00,Rain,Light Rain,330,2013-05-24 20:56:00
5:56 PM,39.9,37.9,93,30.13,7.0,NNW,11.5,19.6,0.01,Rain,Light Rain,330,2013-05-24 21:56:00
6:56 PM,39.9,37.9,93,30.15,10.0,NNW,9.2,-,0.00,Rain,Light Rain,340,2013-05-24 22:56:00
7:56 PM,41.0,37.9,89,30.14,10.0,North,9.2,-,0.00,Rain,Light Rain,360,2013-05-24 23:56:00
8:29 PM,41.0,37.4,87,30.12,10.0,NNE,5.8,-,0.00,,Overcast,20,2013-05-25 00:29:00
8:56 PM,41.0,37.9,89,30.15,10.0,NW,3.5,-,0.00,,Overcast,320,2013-05-25 00:56:00
9:56 PM,41.0,38.8,92,30.15,10.0,NNW,6.9,-,N/A,,Overcast,330,2013-05-25 01:56:00
10:56 PM,41.9,38.8,89,30.15,10.0,NNW,5.8,-,N/A,,Overcast,330,2013-05-25 02:56:00
11:56 PM,43.0,38.8,85,30.15,10.0,NNW,5.8,-,N/A,,Overcast,340,2013-05-25 03:56:00